Miscellaneous Local Product
Issued by NWS Hastings, NE

Home | Current Version | Previous Version | Graphics & Text | Print | Product List | Glossary On
Versions: 1 2 3 4 5 6 7 8 9 10 11 12 13 14 15 16 17 18 19 20 21 22 23 24 25 26 27 28 29 30 31 32 33 34 35 36 37 38 39 40 41 42 43 44 45 46 47 48 49 50
129
AXUS43 KGID 200402
MISGRI

GID CWA HOURLY WEATHER ROUNDUP
NATIONAL WEATHER SERVICE HASTINGS NE
1000 PM CST FRI JAN 19 2018

NOTE: "FAIR" INDICATES FEW OR NO CLOUDS BELOW 12,000 FEET WITH NO
SIGNIFICANT WEATHER AND/OR OBSTRUCTIONS TO VISIBILITY.

...SOUTH CENTRAL NEBRASKA...

CITY           SKY/WX    TMP DP  RH WIND       PRES   REMARKS
GRAND ISLAND   CLOUDY    32  30  92 N3        29.75R
KEARNEY        CLOUDY    36  30  79 N6        29.74S WCI  31
HASTINGS       CLOUDY    31  25  78 SE3       29.73F
ORD            CLOUDY    34  30  85 NW7       29.75R WCI  28
YORK           CLOUDY    36  28  75 S6        29.74F WCI  31
AURORA         CLOUDY    34  26  73 CALM      29.74S
LEXINGTON      CLOUDY    35  30  82 CALM      29.74S
HOLDREGE       CLOUDY    35  28  74 N5        29.72S WCI  31
HEBRON         CLOUDY    31  26  81 CALM      29.75R

...NEBRASKA PANHANDLE...

CITY           SKY/WX    TMP DP  RH WIND       PRES   REMARKS
CHADRON        PTCLDY    29  28  96 W3        29.77R
ALLIANCE       MOCLDY    27  27 100 E5        29.76R WCI  22
SCOTTSBLUFF    CLOUDY    36  30  79 E7        29.75R WCI  30
SIDNEY         CLOUDY    34  25  69 NE3       29.75R

...WESTERN AND NORTH CENTRAL NEBRASKA...

CITY           SKY/WX    TMP DP  RH WIND       PRES   REMARKS
VALENTINE      PTCLDY    32  29  88 SW3       29.76S
AINSWORTH      CLOUDY    32  31  94 W5        29.76S WCI  27
ONEILL         CLOUDY    35  32  90 NW6       29.76S WCI  29
BROKEN BOW     CLOUDY    40  31  70 N6        29.75R
IMPERIAL       CLOUDY    34  28  79 N7        29.75R WCI  28
NORTH PLATTE   CLOUDY    37  30  75 NW6       29.78R WCI  32
MCCOOK         CLOUDY    34  25  69 NW6       29.73R WCI  29

...EASTERN NEBRASKA...

CITY           SKY/WX    TMP DP  RH WIND       PRES   REMARKS
NORFOLK        CLOUDY    34  30  85 NW5       29.73R WCI  30
SO SIOUX CITY  CLOUDY    35  30  82 W6        29.75R WCI  30
TEKAMAH        CLOUDY    33  26  75 CALM      29.75R
COLUMBUS       CLOUDY    27  24  89 CALM      29.76R
ALBION         CLOUDY    33  31  90 NW7       29.75R WCI  27
OMAHA EPPLEY   CLOUDY    33  27  78 SE8       29.75S WCI  26
OFFUTT AFB     CLOUDY    29  25  85 E3        29.75S
MILLARD        CLOUDY    33  28  81 CALM      29.76S
LINCOLN        CLOUDY    31  25  78 CALM      29.78R
NEBRASKA CITY  CLOUDY    37  30  78 SW7       29.77R WCI  31
BEATRICE       CLOUDY    37  28  72 CALM      29.76S
FALLS CITY     CLOUDY    34  26  72 S7        29.79S WCI  28

...NORTHERN KANSAS...

CITY           SKY/WX    TMP DP  RH WIND       PRES   REMARKS
GOODLAND       CLOUDY    33  20  58 CALM      29.73R
HILL CITY      CLOUDY    38  19  46 CALM      29.69R
NORTON         CLEAR     37  18  44 CALM      29.70
PHILLIPSBURG   CLEAR     37  19  48 NE7       29.70F WCI  32
SMITH CENTER     N/A     36  21  55 E8        29.72S WCI  29
BELOIT         CLEAR     37  23  56 CALM      29.72F
HAYS           CLOUDY    39  18  42 S9        29.72R WCI  33
RUSSELL        CLOUDY    46  21  37 S16       29.70S
CONCORDIA      CLOUDY    44  25  47 S16       29.72F
SALINA         CLOUDY    45  29  53 S12       29.76R
TOPEKA         CLOUDY    43  29  57 S8        29.82R



USA.gov is the U.S. government's official web portal to all federal, state and local government web resources and services.